Hourly Weather Kyyazh

Today, 27 October, Tuesday

Time Temperature Precipitation Wind Pressure Humidity
00:00 +11°C° 0 mm 4 mps 742 mmHg 91%
01:00 +10°C° 0 mm 3 mps 742 mmHg 92%
02:00 +10°C° 0 mm 3 mps 743 mmHg 94%
03:00 +10°C° 0 mm 3 mps 743 mmHg 94%
04:00 +9°C° 0 mm 3 mps 743 mmHg 94%
05:00 +9°C° 0 mm 3 mps 742 mmHg 94%
06:00 +9°C° 0 mm 3 mps 743 mmHg 93%
07:00 +10°C° 0 mm 3 mps 743 mmHg 92%
08:00 +10°C° 0 mm 3 mps 743 mmHg 91%
09:00 +11°C° 0 mm 3 mps 744 mmHg 86%
10:00 +13°C° 0 mm 4 mps 744 mmHg 80%
11:00 +14°C° 0 mm 4 mps 744 mmHg 75%
12:00 +16°C° 0 mm 3 mps 744 mmHg 72%
13:00 +17°C° 0 mm 3 mps 744 mmHg 68%
14:00 +18°C° 0 mm 3 mps 744 mmHg 65%
15:00 +17°C° 0 mm 3 mps 744 mmHg 69%
16:00 +16°C° 0 mm 2 mps 744 mmHg 74%
17:00 +15°C° 0 mm 2 mps 744 mmHg 79%
18:00 +14°C° 0 mm 2 mps 744 mmHg 82%
19:00 +12°C° 0 mm 3 mps 744 mmHg 85%
20:00 +12°C° 0 mm 3 mps 744 mmHg 89%
21:00 +11°C° 0 mm 3 mps 744 mmHg 90%
22:00 +11°C° 0 mm 3 mps 744 mmHg 91%
23:00 +11°C° 0 mm 3 mps 744 mmHg 92%

Tomorrow, 28 October, Wednesday

Time Temperature Precipitation Wind Pressure Humidity
00:00 +11°C° 0 mm 3 mps 744 mmHg 92%
01:00 +10°C° 0 mm 3 mps 744 mmHg 92%
02:00 +10°C° 0 mm 2 mps 745 mmHg 93%
03:00 +10°C° 0 mm 2 mps 745 mmHg 93%
04:00 +10°C° 0 mm 2 mps 745 mmHg 93%
05:00 +9°C° 0 mm 2 mps 745 mmHg 93%
06:00 +9°C° 0 mm 2 mps 745 mmHg 93%
07:00 +9°C° 0 mm 2 mps 745 mmHg 94%
08:00 +9°C° 0 mm 2 mps 746 mmHg 94%
09:00 +12°C° 0 mm 2 mps 746 mmHg 87%
10:00 +14°C° 0 mm 2 mps 746 mmHg 81%
11:00 +15°C° 0 mm 2 mps 746 mmHg 74%
12:00 +16°C° 0 mm 2 mps 746 mmHg 71%
13:00 +17°C° 0 mm 2 mps 746 mmHg 68%
14:00 +17°C° 0 mm 2 mps 746 mmHg 65%
15:00 +16°C° 0 mm 1 mps 746 mmHg 71%
16:00 +15°C° 0 mm 1 mps 745 mmHg 76%
17:00 +14°C° 0 mm 1 mps 745 mmHg 82%
18:00 +13°C° 0 mm 1 mps 745 mmHg 84%
19:00 +13°C° 0 mm 1 mps 746 mmHg 86%
20:00 +12°C° 0 mm 1 mps 746 mmHg 88%
21:00 +12°C° 0 mm 1 mps 746 mmHg 89%
22:00 +12°C° 0 mm 2 mps 746 mmHg 90%
23:00 +12°C° 0 mm 2 mps 746 mmHg 91%

Day after tomorrow, 29 October, Thursday

Time Temperature Precipitation Wind Pressure Humidity
00:00 +10°C° 0 mm 2 mps 746 mmHg 91%
01:00 +10°C° 0 mm 2 mps 746 mmHg 91%
02:00 +11°C° 0 mm 1 mps 746 mmHg 92%
03:00 +11°C° 0 mm 1 mps 746 mmHg 92%
04:00 +10°C° 0 mm 1 mps 745 mmHg 92%
05:00 +10°C° 0 mm 1 mps 745 mmHg 92%
06:00 +10°C° 0 mm 1 mps 745 mmHg 92%
07:00 +10°C° 0 mm 1 mps 746 mmHg 92%
08:00 +9°C° 0 mm 2 mps 746 mmHg 92%
09:00 +12°C° 0 mm 2 mps 746 mmHg 86%
10:00 +13°C° 0 mm 2 mps 746 mmHg 80%
11:00 +14°C° 0 mm 2 mps 746 mmHg 73%
12:00 +14°C° 0 mm 2 mps 746 mmHg 70%
13:00 +15°C° 0 mm 2 mps 745 mmHg 66%
14:00 +14°C° 0 mm 3 mps 745 mmHg 63%
15:00 +14°C° 0 mm 2 mps 745 mmHg 67%
16:00 +13°C° 0 mm 2 mps 745 mmHg 71%
17:00 +12°C° 0 mm 2 mps 745 mmHg 75%
18:00 +12°C° 0 mm 2 mps 745 mmHg 77%
19:00 +10°C° 0 mm 2 mps 745 mmHg 79%
20:00 +10°C° 0 mm 2 mps 745 mmHg 81%
21:00 +10°C° 0 mm 2 mps 745 mmHg 81%
22:00 +10°C° 0 mm 3 mps 745 mmHg 80%
23:00 +10°C° 0 mm 3 mps 745 mmHg 79%

30 October, Friday

Time Temperature Precipitation Wind Pressure Humidity
00:00 +10°C° 0 mm 3 mps 745 mmHg 81%
01:00 +10°C° 0 mm 3 mps 745 mmHg 83%
02:00 +9°C° 0 mm 3 mps 745 mmHg 84%
03:00 +9°C° 0 mm 3 mps 745 mmHg 85%
04:00 +9°C° 0 mm 3 mps 745 mmHg 86%
05:00 +8°C° 0 mm 4 mps 745 mmHg 87%
06:00 +8°C° 0 mm 4 mps 746 mmHg 87%
07:00 +7°C° 0 mm 5 mps 746 mmHg 87%
08:00 +7°C° 0 mm 5 mps 746 mmHg 87%
09:00 +7°C° 0 mm 5 mps 747 mmHg 83%
10:00 +8°C° 0 mm 5 mps 747 mmHg 79%
11:00 +8°C° 0 mm 5 mps 747 mmHg 75%
12:00 +9°C° 0 mm 5 mps 747 mmHg 72%
13:00 +9°C° 0 mm 5 mps 747 mmHg 69%
14:00 +9°C° 0 mm 5 mps 747 mmHg 66%
15:00 +9°C° 0 mm 5 mps 747 mmHg 68%
16:00 +8°C° 0 mm 5 mps 747 mmHg 71%
17:00 +7°C° 0 mm 5 mps 748 mmHg 73%
18:00 +7°C° 0 mm 4 mps 748 mmHg 73%
19:00 +7°C° 0 mm 4 mps 748 mmHg 73%
20:00 +8°C° 0 mm 3 mps 748 mmHg 73%
21:00 +8°C° 0 mm 3 mps 748 mmHg 73%
22:00 +8°C° 0 mm 3 mps 748 mmHg 73%
23:00 +7°C° 0 mm 3 mps 748 mmHg 73%

31 October, Saturday

Time Temperature Precipitation Wind Pressure Humidity
00:00 +7°C° 0 mm 3 mps 749 mmHg 72%
01:00 +7°C° 0 mm 2 mps 749 mmHg 72%
02:00 +7°C° 0 mm 2 mps 749 mmHg 72%
03:00 +7°C° 0 mm 2 mps 749 mmHg 72%
04:00 +7°C° 0 mm 2 mps 749 mmHg 72%
05:00 +7°C° 0 mm 2 mps 749 mmHg 72%
06:00 +7°C° 0 mm 2 mps 749 mmHg 72%
07:00 +7°C° 0 mm 2 mps 750 mmHg 72%
08:00 +7°C° 0 mm 2 mps 750 mmHg 72%
09:00 +8°C° 0 mm 3 mps 750 mmHg 70%
10:00 +8°C° 0 mm 3 mps 750 mmHg 67%
11:00 +9°C° 0 mm 3 mps 751 mmHg 65%
12:00 +8°C° 0 mm 4 mps 751 mmHg 64%
13:00 +10°C° 0 mm 4 mps 751 mmHg 64%
14:00 +10°C° 0 mm 4 mps 751 mmHg 63%
15:00 +8°C° 0 mm 4 mps 751 mmHg 69%
16:00 +8°C° 0 mm 4 mps 751 mmHg 75%
17:00 +8°C° 0 mm 3 mps 751 mmHg 80%
18:00 +8°C° 0 mm 3 mps 751 mmHg 83%
19:00 +6°C° 0 mm 4 mps 751 mmHg 85%
20:00 +6°C° 0 mm 4 mps 751 mmHg 87%
21:00 +6°C° 0 mm 4 mps 751 mmHg 87%
22:00 +6°C° 0 mm 4 mps 751 mmHg 87%
23:00 +6°C° 0 mm 4 mps 751 mmHg 86%

1 November, Sunday

Time Temperature Precipitation Wind Pressure Humidity
00:00 +6°C° 0 mm 4 mps 751 mmHg 88%
01:00 +7°C° 0 mm 3 mps 751 mmHg 90%
02:00 +7°C° 0 mm 3 mps 751 mmHg 91%
03:00 +5°C° 0 mm 3 mps 751 mmHg 92%
04:00 +5°C° 0 mm 3 mps 751 mmHg 93%
05:00 +5°C° 0 mm 4 mps 751 mmHg 94%
06:00 +5°C° 0 mm 4 mps 751 mmHg 93%
07:00 +5°C° 0 mm 4 mps 751 mmHg 91%
08:00 +6°C° 0 mm 4 mps 751 mmHg 90%
09:00 +6°C° 0.1 mm 4 mps 751 mmHg 89%
10:00 +6°C° 0.1 mm 4 mps 751 mmHg 87%
11:00 +7°C° 0.1 mm 4 mps 751 mmHg 86%
12:00 +7°C° 0.1 mm 4 mps 750 mmHg 86%
13:00 +7°C° 0.1 mm 4 mps 750 mmHg 85%
14:00 +7°C° 0.1 mm 4 mps 750 mmHg 85%
15:00 +8°C° 0.1 mm 3 mps 750 mmHg 87%
16:00 +8°C° 0.1 mm 3 mps 750 mmHg 88%
17:00 +7°C° 0.1 mm 3 mps 750 mmHg 90%
18:00 +7°C° 0.1 mm 3 mps 750 mmHg 90%
19:00 +7°C° 0.1 mm 3 mps 750 mmHg 90%
20:00 +7°C° 0.1 mm 3 mps 750 mmHg 91%
21:00 +7°C° 0 mm 3 mps 749 mmHg 91%
22:00 +7°C° 0 mm 3 mps 749 mmHg 91%
23:00 +7°C° 0 mm 3 mps 749 mmHg 90%
Show more

We Need Your Consent

Meteoprog and our Service Providers may store and access personal data such as cookies, device identifiers or other similar technologies on your device and process such data to personalise content and ads, as well as provide social media features and to analyse the traffic.

  • Store and/or access information on your device

    Cookies, device identifiers or other information can be stored or accessed on your device for the purposes indicated above.

  • Personalised ads and content, ad and content measurement, audience insights, and products development

    Ads and content can be personalised based on a profile. More data can be added to better personalise ads and content. Ad and content performance can be measured. Insights about the audience who saw the ads and content can be derived. Such data can be used to develop or improve user’s experience, systems and software.

By clicking ‘I Agree’ you will allow the use of indicated cookies, device identifiers, web beacons or other similar technologies. Your settings can be changed in the browser on your device.

For certain purposes, legitimate interests may be relied on, rather than consent. You can read more about this in our Privacy and Cookie Policy.